Voltar ao catálogo

STARLINK-30166

AtivoComunicaçõesVLEO
NORAD 57602·PAYLOAD·🇺🇸 United States

Lançado Aug 11, 2023 de Cape Canaveral Space Force Station

Loading…

Próximas Passagens (próximas 24 horas)

TLE

AtualizadoSource: CelesTrak SupGP

Época: Sep 15, 2026, 01:35 UTC

1 57602C 23119A   26258.06645833  .00021299  00000+0  77111-3 0  2584
2 57602  43.0010  91.8743 0001616 268.4647  15.3434 15.27582203    19

Acompanhe STARLINK-30166 em tempo real com AllMySat

Download on the App Store